THORAD AGENA D DEB

Satellite information

Favourite Embed

Satellite Type and Status

DEBRISIN ORBIT

Key statistics

Satellite THORAD AGENA D DEB at a glance.

Uptime

20119

Days in orbit

Revolutions

≈ 13.9

Per day

Orbit

SSO

Sun Synchronous Orbit

Inclination

99.7

Latest

Satellite identification and parameters

Extended collection of information and parameters for THORAD AGENA D DEB.

Object identification

Identified? True

Debris? True

Object name: THORAD AGENA D DEB

International designator: 1970-025SP

Object number (NORAD): 42533

Object ID (CCSDS): 42533

Country: UNITED STATES OF AMERICA (US)

Current information (Y/N): Y

RCS size: SMALL

Orbital parameters

Period: 103.845 minutes

Inclination: 99.6706 deg

SMA: 7318.435 km

Apoapsis: 1042.342 km

Periapsis: 838.258 km

RAAN: 23.4741 deg

Eccentricy: 0.0139431

Argument of periapsis: 339.4382 deg

Mean anomaly: 20.1195 deg

Mean motion: 13.86677363 rev/day

Mean motion (dot): 0.00002281 rev/day2

B* drag term: 0.0018531 1/REarth

Two-line elements (TLE)

Creation date: May 6, 2025, 3:54 a.m.

Reference frame: TEME

Reference center: EARTH

Epoch: May 4, 2025, 11:55 p.m. UTC

TLE line 0: 0 THORAD AGENA D DEB

TLE line 1: 1 42533U 70025SP 25124.99720273 .00002281 00000-0 18531-2 0 9997

TLE line 2: 2 42533 99.6706 23.4741 0139431 339.4382 20.1195 13.86677363577298

Live tracking on map

Real-time ground track for satellite THORAD AGENA D DEB.

In-orbit conjunctions

A list of the most updated potential collisions computed for object THORAD AGENA D DEB.

Target Orbit TCA Probability of collision Miss distance Type
CZ-6A DEB LEO 2025-02-26 23:34:30 0.001240158 254.0 (m) DEBRIS
FENGYUN 1C DEB SSO 2024-11-14 22:22:14 0.00024406 459.0 (m) DEBRIS

Associated space launch

Meteorological research and development satellite

THORAD AGENA D DEB was lifted into orbit during the mission ‘Thorad SLV-2G Agena D | Nimbus 4’, on board a Thorad SLV-2G Agena D space rocket.

The launch took place on April 8, 1970, 8:17 a.m. from Space Launch Complex 2E.

For more information about the launch, click the button.

Launch to space Thorad SLV-2G Agena D | Nimbus 4
Thorad SLV-2G Agena D | Nimbus 4

Agency: N/A

Status: Launch Successful

Launch date: April 8, 1970, 8:17 a.m. UTC

Rocket: Thorad SLV-2G Agena D

Launch pad: Space Launch Complex 2E

Location: Vandenberg SFB, CA, USA

...

Latest news about this satellite

There are no fresh news available about this satellite. Check back as we update our databases every day.


Newsletter sign-up

Weekly statistics, charts and insights to help you stay on top of the space industry.